Flag for Poland Weather past 2 weeks in Wroclaw, Poland

Now
61 °F

Passing clouds.


Feels Like: 61 °F
Forecast: 53 / 73 °F
Wind: 5 mph from Southwest

Location: Wroclaw Ii

Current Time: Sep 3, 2015 at 12:28:44 AM

Latest Report: Sep 3, 2015 at 12:00 AM


Visibility: N/A

Pressure: 30.04 "Hg

Humidity: 72%

Dew point: 52 °F

Location of WroclawLocation

Historic Weather in Wroclaw — Graph

°F

Wroclaw temperature yesterday

Maximum temperature yesterday: 70 °F (at 2:30 PM)
Minimum temperature yesterday: 59 °F (at 10:30 PM)
Average temperature yesterday: 65 °F

Past Weeks' High & Low Weather Summary

 TemperatureHumidityPressure
High99 °F (Aug 31, 2:30 PM)100% (Aug 19, 3:30 AM)30.33 "Hg (Aug 19, 3:30 AM)
Low48 °F (Aug 20, 6:00 AM)20% (Aug 27, 3:00 PM)29.68 "Hg (Sep 1, 7:30 PM)
Average71 °F57%30.06 "Hg
* Reported Aug 18 11:00 PM — Sep 2 11:00 PM, Wroclaw, Weather by CustomWeather, © 2015

Note: Actual official high and low records may vary slightly from our data, if they occured in-between our weather recording intervals... More about our weather records

Advertising

Wroclaw weather history for previous 24 hours

 ConditionsComfort  
Time TempWeatherWind HumidityBarometerVisibility
11:00 PM
Wed, Sep 2
59 °FPassing clouds.1 mph77%30.04 "HgN/A
10:30 PM59 °FPassing clouds.1 mph77%30.04 "HgN/A
10:00 PM61 °FClear.1 mph68%30.04 "Hg10 mi
9:30 PM61 °FClear.1 mph72%30.04 "Hg10 mi
9:00 PM61 °FClear.1 mph72%30.01 "Hg10 mi
8:30 PM61 °FSunny.1 mph68%30.01 "Hg10 mi
8:00 PM61 °FSunny.1 mph63%30.01 "Hg10 mi
7:30 PM64 °FSunny.1 mph60%30.01 "Hg10 mi
7:00 PM70 °FSunny.3 mph43%30.01 "Hg10 mi
6:30 PM70 °FSunny.1 mph43%30.01 "Hg10 mi
6:00 PM70 °FPassing clouds.6 mph43%30.01 "HgN/A
5:30 PM70 °FPassing clouds.5 mph43%30.01 "HgN/A
5:00 PM70 °FPassing clouds.7 mph43%30.01 "HgN/A
4:30 PM70 °FScattered clouds.8 mph43%30.01 "HgN/A
4:00 PM70 °FScattered clouds.6 mph43%30.01 "HgN/A
3:30 PM70 °FScattered clouds.7 mph43%30.01 "HgN/A
3:00 PM68 °FScattered clouds.7 mph49%30.04 "HgN/A
2:30 PM70 °FScattered clouds.9 mph46%30.04 "HgN/A
2:00 PM68 °FPartly sunny.12 mph53%30.04 "HgN/A
1:30 PM68 °FPartly sunny.14 mph49%30.04 "HgN/A
1:00 PM68 °FPartly sunny.13 mph49%30.04 "HgN/A
12:30 PM68 °FPartly sunny.13 mph53%30.04 "HgN/A
12:00 PM66 °FPartly sunny.13 mph60%30.04 "HgN/A
11:30 AM66 °FPartly sunny.14 mph60%30.04 "HgN/A
11:00 AM64 °FPartly sunny.17 mph68%30.01 "HgN/A
10:30 AM63 °FPartly sunny.10 mph77%30.01 "HgN/A
10:00 AM63 °FPartly sunny.14 mph77%30.04 "HgN/A
9:30 AM63 °FPartly sunny.14 mph77%30.01 "HgN/A
9:00 AM61 °FPartly sunny.12 mph88%30.01 "HgN/A
8:30 AM61 °FPartly sunny.13 mph88%30.01 "HgN/A
8:00 AM61 °FPartly sunny.15 mph88%29.98 "HgN/A
7:30 AM61 °FScattered clouds.13 mph88%29.98 "HgN/A
7:00 AM61 °FSprinkles. Passing clouds.12 mph88%29.98 "HgN/A
6:30 AM61 °FSprinkles. Passing clouds.10 mph88%29.95 "HgN/A
6:00 AM61 °FSprinkles. Passing clouds.10 mph88%29.95 "HgN/A
5:30 AM61 °FSprinkles. Passing clouds.14 mph88%29.95 "HgN/A
5:00 AM63 °FSprinkles. Passing clouds.15 mph83%29.95 "HgN/A
4:30 AM63 °FPartly cloudy.16 mph83%29.95 "HgN/A
4:00 AM63 °FPartly cloudy.15 mph88%29.92 "HgN/A
3:30 AM63 °FPassing clouds.16 mph88%29.92 "HgN/A
3:00 AM64 °FPartly cloudy.21 mph88%29.89 "HgN/A
2:30 AM64 °FPassing clouds.22 mph88%29.89 "HgN/A
2:00 AM68 °FPartly cloudy.14 mph88%29.86 "HgN/A
1:30 AM68 °FPartly cloudy.12 mph94%29.86 "HgN/A
1:00 AM68 °FPassing clouds.12 mph88%29.83 "HgN/A
Weather by CustomWeather, © 2015

See weather overviewHow to use our weather pages